Location: Unspecified
(0.0000°N, 0.0000°E)
Time: 02:27:57
(UTC+00:00)

Envisat - Pass Details

Date: 02 March 2021
Orbit: 764 x 766 km, 98.1° (Epoch: 24 February)

Event Time Altitude Azimuth Distance (km) Brightness Sun altitude
Rises 04:10:12 0° 48° (NE) 3,217 6.7 -30.2°
Reaches altitude 10° 04:13:45 10° 74° (ENE) 2,295 6.2 -29.4°
Maximum altitude 04:16:06 13° 103° (ESE) 2,073 6.1 -28.8°
Drops below altitude 10° 04:18:28 10° 131° (SE) 2,300 6.2 -28.2°
Sets 04:22:01 0° 157° (SSE) 3,230 6.6 -27.3°
